Location: Bocchiglicro
(39.4167°N, 16.7500°E)
Time: 22:24:52
(UTC+00:00)

NOSS 2-1 (D) - Pass Details

Date: 07 June 2020
Orbit: 449 x 1754 km, 63.3° (Epoch: 25 June)

Event Time Altitude Azimuth Distance (km) Brightness Sun altitude
Exits shadow 01:16:56 23° 293° (WNW) 997 4.5 -19.2°
Maximum altitude 01:17:35 25° 312° (NW) 958 4.6 -19.1°
Drops below altitude 10° 01:20:33 10° 10° (N) 1,639 6.7 -18.8°
Sets 01:23:03 0° 24° (NNE) 2,614 8.3 -18.5°
